This is the latest recevied weather packets stored in our database for station/object 9D9-WX. If no packets are shown the sender has not sent any weather packets the latest 10 day(s).
| Time | Temp. | Humidity | Pressure | Rain* | Wind** | Luminosity | Snow |
|---|---|---|---|---|---|---|---|
| 1777678221 | 5.56° C | 60% | 988.6 hPa | 0 mm | - | - | - |
| 1777677309 | 6.11° C | 60% | 988.6 hPa | 0 mm | - | - | - |
| 1777676428 | 6.11° C | 60% | 988.6 hPa | 0 mm | - | - | - |
| 1777675509 | 6.11° C | 60% | 987.4 hPa | 0 mm | - | - | - |
| 1777674626 | 6.11° C | 59% | 988.3 hPa | 0 mm | - | - | - |
| 1777673709 | 6.67° C | 59% | 988.3 hPa | 0 mm | - | - | - |
| 1777672831 | 6.67° C | 59% | 988.3 hPa | 0 mm | - | - | - |
| 1777671909 | 6.11° C | 65% | 987.7 hPa | 0 mm | - | - | - |
| 1777671021 | 6.11° C | 59% | 988.1 hPa | 0 mm | - | - | - |
| 1777670109 | 5.56° C | 59% | 988.1 hPa | 0 mm | - | - | - |
| 1777669230 | 7.22° C | 59% | 988.1 hPa | 0 mm | - | - | - |
| 1777668309 | 6.67° C | 57% | 987.2 hPa | 0 mm | - | - | - |
| 1777667426 | 6.67° C | 55% | 987.4 hPa | 0 mm | - | - | - |
| 1777666509 | 6.67° C | 55% | 987.4 hPa | 0 mm | - | - | - |
| 1777665631 | 6.67° C | 55% | 987.4 hPa | 0 mm | - | - | - |
| 1777664709 | 7.78° C | 59% | 987.2 hPa | 0 mm | - | - | - |
| 1777663825 | 7.22° C | 59% | 987.2 hPa | 0 mm | - | - | - |
| 1777662910 | 7.22° C | 59% | 987.2 hPa | 0 mm | - | - | - |
| 1777662025 | 7.22° C | 59% | 987.2 hPa | 0 mm | - | - | - |
| 1777661109 | 7.22° C | 55% | 986.8 hPa | 0 mm | - | - | - |
| 1777660222 | 7.22° C | 60% | 987 hPa | 0 mm | - | - | - |
| 1777659309 | 6.67° C | 60% | 986.9 hPa | 0 mm | - | - | - |
| 1777658430 | 6.67° C | 60% | 986.9 hPa | 0 mm | - | - | - |
| 1777657509 | 6.67° C | 59% | 987.9 hPa | 0 mm | - | - | - |
| 1777656622 | 6.67° C | 55% | 987.3 hPa | 0 mm | - | - | - |
* Rain latest hour (hover to see other rain measurements)
** Current wind speed in m/s (hover to see current wind gust speed)